THEMIS A

Last updated on July 6, 2021, 3:27 p.m. UTC

1 30580U 07004A   21186.19549262 -.00000720  00000-0  00000+0 0  9992
2 30580  16.3519  15.5201 8397393 100.6189 351.0988  0.87837455 50077
UTC
Height (km)
Latitude
Longitude
Inclination
Orbital Period
UTC large
Height (km)
Speed (km/s)
/
Latitude / Longitude
Inclination (degrees)
Orbital Period (minutes)
Azimuth
Elevation
Range (km)
Doppler Factor
iOS Compass Heading
iOS Angle